Teterboro, NJ

11:34 PM EDT on April 21, 2018 (GMT -0400)
Teterboro

Weather History for KTEB - May, 2014

Change the Weather History Date:

Monday, May 5, 2014

  Actual Average Record
Temperature  
Mean Temperature 60 °F -  
Max Temperature 70 °F 68 °F 90 °F (1980)
Min Temperature 51 °F 47 °F 37 °F (1997)
Degree Days  
Heating Degree Days 4    
Growing Degree Days 10 (Base 50)    
Moisture  
Dew Point 33 °F    
Average Humidity 39    
Maximum Humidity 59    
Minimum Humidity 21    
Precipitation  
Precipitation 0.00 in - - ()
Sea Level Pressure  
Sea Level Pressure 29.85 in    
Wind  
Wind Speed 12 mph (NW)    
Max Wind Speed 21 mph    
Max Gust Speed 33 mph    
Visibility 10 miles    
Events      
Averages and records for this station are not official NWS values.
T = Trace of Precipitation, MM = Missing Value Source: NWS Daily Summary

Daily Weather History Graph

Daily Weather History Graph

Search for Another Location

Airport or City:

Astronomy

May. 05, 2014 Rise Set
Actual Time 5:49 AM EDT 7:56 PM EDT
Civil Twilight 5:19 AM EDT 8:27 PM EDT
Nautical Twilight 4:42 AM EDT 9:04 PM EDT
Astronomical Twilight 4:02 AM EDT 9:44 PM EDT
Moon 11:07 AM EDT (5/5) 12:39 AM EDT (5/5)
Length of Visible Light 15h 07m
Length of Day
14h 07m
Waxing Crescent, 36% of the Moon is Illuminated
May 5
Waxing Crescent
May 6
First Quarter
May 14
Full
May 21
Last Quarter
May 28
New

Hourly Weather History & Observations

Time (EDT) Temp. Dew Point Humidity Pressure Visibility Wind Dir Wind Speed Gust Speed Precip Events Conditions
12:51 AM 55.0 °F 32.0 °F 42% 29.80 in 10.0 mi WNW 20.7 mph 33.4 mph N/A   Mostly Cloudy
1:51 AM 54.0 °F 34.0 °F 47% 29.81 in 10.0 mi NW 12.7 mph 21.9 mph N/A   Overcast
2:51 AM 53.1 °F 35.1 °F 50% 29.81 in 10.0 mi NW 10.4 mph 24.2 mph N/A   Overcast
3:51 AM 52.0 °F 37.0 °F 57% 29.82 in 10.0 mi NW 9.2 mph 21.9 mph N/A   Clear
4:51 AM 51.8 °F 37.4 °F 58% 29.83 in 10.0 mi NNW 5.8 mph - N/A   Clear
5:51 AM 51.1 °F 37.0 °F 59% 29.85 in 10.0 mi NW 6.9 mph - N/A   Clear
6:51 AM 52.0 °F 37.0 °F 57% 29.88 in 10.0 mi NW 9.2 mph 16.1 mph N/A   Clear
7:51 AM 53.6 °F 37.4 °F 54% 29.89 in 10.0 mi NW 13.8 mph 23.0 mph N/A   Clear
8:51 AM 55.9 °F 37.0 °F 49% 29.90 in 10.0 mi NNW 17.3 mph 23.0 mph N/A   Clear
9:51 AM 57.9 °F 37.0 °F 46% 29.89 in 10.0 mi NW 15.0 mph 23.0 mph N/A   Clear
10:51 AM 61.0 °F 37.9 °F 42% 29.88 in 10.0 mi NW 16.1 mph 27.6 mph N/A   Clear
11:51 AM 62.1 °F 37.9 °F 41% 29.88 in 10.0 mi NNW 11.5 mph 24.2 mph N/A   Clear
12:51 PM 64.0 °F 37.0 °F 37% 29.87 in 10.0 mi WNW 9.2 mph 20.7 mph N/A   Clear
1:51 PM 64.9 °F 35.1 °F 33% 29.85 in 10.0 mi North 9.2 mph - N/A   Clear
2:51 PM 68.0 °F 36.0 °F 31% 29.83 in 10.0 mi NNW 10.4 mph - N/A   Clear
3:51 PM 69.1 °F 35.1 °F 29% 29.81 in 10.0 mi WNW 12.7 mph 17.3 mph N/A   Clear
4:51 PM 70.0 °F 32.0 °F 25% 29.80 in 10.0 mi NNW 8.1 mph 19.6 mph N/A   Clear
5:51 PM 68.0 °F 27.0 °F 21% 29.81 in 10.0 mi WNW 12.7 mph 21.9 mph N/A   Clear
6:51 PM 66.9 °F 26.1 °F 21% 29.81 in 10.0 mi WNW 8.1 mph - N/A   Clear
7:51 PM 64.9 °F 26.1 °F 23% 29.83 in 10.0 mi NW 10.4 mph - N/A   Clear
8:51 PM 64.0 °F 25.0 °F 23% 29.85 in 10.0 mi NW 10.4 mph - N/A   Clear
9:51 PM 59.0 °F 26.1 °F 28% 29.87 in 10.0 mi WNW 6.9 mph - N/A   Clear
10:51 PM 59.0 °F 26.1 °F 28% 29.88 in 10.0 mi NNW 6.9 mph - N/A   Clear
11:51 PM 57.0 °F 26.1 °F 30% 29.89 in 10.0 mi NNW 4.6 mph - N/A   Clear